Weather History for KONM - November, 2013

Change the Weather History Date:

Thursday, November 28, 2013

  Actual Average Record
Temperature  
Mean Temperature 39 °F -  
Max Temperature 52 °F 54 °F 66 °F (2014)
Min Temperature 26 °F 21 °F 26 °F (2013)
Degree Days  
Heating Degree Days 26    
Moisture  
Dew Point 29 °F    
Average Humidity 75    
Maximum Humidity 100    
Minimum Humidity 36    
Precipitation  
Precipitation 0.00 in - - ()
Sea Level Pressure  
Sea Level Pressure 30.24 in    
Wind  
Wind Speed 4 mph (SW)    
Max Wind Speed 8 mph    
Max Gust Speed -    
Visibility 10 miles    
Events      
Averages and records for this station are not official NWS values.
T = Trace of Precipitation, MM = Missing Value Source: NWS Daily Summary

Daily Weather History Graph

Daily Weather History Graph

Search for Another Location

Airport or City:

Trip Planner

Search our weather history database for the weather conditions in past years. The results will help you decide how hot, cold, wet, or windy it might be!

Date:

Astronomy

Nov. 28, 2013 Rise Set
Actual Time 6:52 AM MST 4:58 PM MST
Civil Twilight 6:25 AM MST 5:25 PM MST
Nautical Twilight 5:54 AM MST 5:56 PM MST
Astronomical Twilight 5:24 AM MST 6:26 PM MST
Moon 2:09 AM MST (11/28) 1:59 PM MST (11/28)
Length of Visible Light 11h 00m
Length of Day
10h 06m
Waning Crescent, 22% of the Moon is Illuminated
Nov 28
Waning Crescent
Dec 2
New
Dec 9
First Quarter
Dec 17
Full
Dec 25
Last Quarter

Hourly Weather History & Observations

Time (MST) Temp. Windchill Dew Point Humidity Pressure Visibility Wind Dir Wind Speed Gust Speed Precip Events Conditions
12:15 AM 32.5 °F 28.1 °F 30.2 °F 91% 30.22 in 10.0 mi SSW 4.6 mph - N/A   Clear
12:35 AM 32.5 °F 27.1 °F 30.6 °F 92% 30.21 in 10.0 mi SSW 5.8 mph - N/A   Clear
12:55 AM 32.9 °F 27.5 °F 30.2 °F 90% 30.21 in 10.0 mi SSW 5.8 mph - N/A   Clear
1:15 AM 32.5 °F 28.1 °F 30.2 °F 91% 30.21 in 10.0 mi SW 4.6 mph - N/A   Clear
1:35 AM 32.0 °F 27.5 °F 29.7 °F 91% 30.20 in 10.0 mi SSW 4.6 mph - N/A   Clear
1:55 AM 32.0 °F 26.4 °F 29.3 °F 90% 30.20 in 10.0 mi SW 5.8 mph - N/A   Clear
2:15 AM 31.5 °F 26.8 °F 28.9 °F 90% 30.20 in 10.0 mi SW 4.6 mph - N/A   Clear
2:35 AM 30.2 °F 24.3 °F 28.4 °F 93% 30.20 in 10.0 mi WSW 5.8 mph - N/A   Clear
2:55 AM 30.0 °F - 28.2 °F 93% 30.21 in 10.0 mi Calm Calm - N/A   Clear
3:15 AM 28.9 °F 22.8 °F 27.5 °F 94% 30.22 in 10.0 mi WSW 5.8 mph - N/A   Clear
3:35 AM 29.3 °F - 27.7 °F 94% 30.22 in 10.0 mi Calm Calm - N/A   Clear
3:55 AM 28.9 °F 25.2 °F 28.0 °F 96% 30.22 in 10.0 mi WNW 3.5 mph - N/A   Clear
4:15 AM 27.9 °F 22.6 °F 27.0 °F 96% 30.21 in 10.0 mi WNW 4.6 mph - N/A   Clear
4:35 AM 28.0 °F 22.8 °F 27.5 °F 98% 30.21 in 10.0 mi NW 4.6 mph - N/A   Clear
4:55 AM 28.4 °F 24.6 °F 28.4 °F 100% 30.22 in 10.0 mi WNW 3.5 mph - N/A   Clear
5:15 AM 28.2 °F 23.1 °F 27.7 °F 98% 30.22 in 10.0 mi NW 4.6 mph - N/A   Clear
5:35 AM 28.4 °F 23.3 °F 27.7 °F 97% 30.23 in 10.0 mi NW 4.6 mph - N/A   Clear
5:55 AM 26.8 °F 22.8 °F 26.2 °F 98% 30.23 in 10.0 mi NW 3.5 mph - N/A   Clear
6:15 AM 26.4 °F 22.4 °F 25.7 °F 97% 30.24 in 10.0 mi NW 3.5 mph - N/A   Clear
6:35 AM 26.6 °F - 25.9 °F 97% 30.24 in 10.0 mi Calm Calm - N/A   Clear
6:55 AM 26.4 °F 22.4 °F 25.7 °F 97% 30.25 in 10.0 mi North 3.5 mph - N/A   Clear
7:15 AM 26.6 °F 21.2 °F 26.4 °F 99% 30.25 in 10.0 mi NW 4.6 mph - N/A   Clear
7:35 AM 29.3 °F 23.2 °F 28.4 °F 96% 30.25 in 10.0 mi NW 5.8 mph - N/A   Clear
7:55 AM 31.5 °F 25.8 °F 29.3 °F 92% 30.27 in 10.0 mi NW 5.8 mph - N/A   Clear
8:15 AM 32.9 °F 27.5 °F 30.7 °F 92% 30.28 in 10.0 mi NNW 5.8 mph - N/A   Clear
8:35 AM 34.0 °F 28.8 °F 31.3 °F 90% 30.28 in 10.0 mi NNW 5.8 mph - N/A   Clear
8:55 AM 35.6 °F 30.7 °F 31.6 °F 85% 30.28 in 10.0 mi North 5.8 mph - N/A   Clear
9:15 AM 36.7 °F 31.2 °F 31.6 °F 82% 30.28 in 10.0 mi North 6.9 mph - N/A   Clear
9:35 AM 38.1 °F 34.6 °F 31.8 °F 78% 30.28 in 10.0 mi North 4.6 mph - N/A   Clear
9:55 AM 39.4 °F 35.2 °F 31.8 °F 74% 30.28 in 10.0 mi North 5.8 mph - N/A   Clear
10:15 AM 41.0 °F 38.0 °F 32.0 °F 70% 30.28 in 10.0 mi North 4.6 mph - N/A   Clear
10:35 AM 41.9 °F 39.0 °F 31.5 °F 66% 30.28 in 10.0 mi NNW 4.6 mph - N/A   Clear
10:55 AM 42.8 °F 41.1 °F 31.3 °F 64% 30.28 in 10.0 mi NE 3.5 mph - N/A   Clear
11:15 AM 44.4 °F 42.9 °F 30.9 °F 59% 30.27 in 10.0 mi North 3.5 mph - N/A   Clear
11:35 AM 44.8 °F - 29.7 °F 55% 30.26 in 10.0 mi Calm Calm - N/A   Clear
11:55 AM 46.4 °F - 30.6 °F 54% 30.26 in 10.0 mi Calm Calm - N/A   Clear
12:15 PM 46.9 °F - 29.8 °F 51% 30.25 in 10.0 mi Calm Calm - N/A   Clear
12:35 PM 48.6 °F - 30.2 °F 49% 30.24 in 10.0 mi South 3.5 mph - N/A   Clear
12:55 PM 50.0 °F - 30.2 °F 47% 30.24 in 10.0 mi SSE 5.8 mph - N/A   Clear
1:15 PM 49.8 °F - 30.2 °F 47% 30.22 in 10.0 mi ESE 3.5 mph - N/A   Clear
1:35 PM 50.5 °F - 28.9 °F 43% 30.21 in 10.0 mi Calm Calm - N/A   Clear
1:55 PM 51.4 °F - 27.9 °F 40% 30.21 in 10.0 mi Calm Calm - N/A   Clear
2:15 PM 51.4 °F - 26.4 °F 38% 30.20 in 10.0 mi Calm Calm - N/A   Clear
2:35 PM 52.0 °F - 25.7 °F 36% 30.20 in 10.0 mi ESE 4.6 mph - N/A   Clear
2:55 PM 52.5 °F - 26.1 °F 36% 30.20 in 10.0 mi ESE 5.8 mph - N/A   Clear
3:15 PM 52.0 °F - 26.6 °F 37% 30.21 in 10.0 mi SSE 3.5 mph - N/A   Clear
3:35 PM 52.0 °F - 27.1 °F 38% 30.21 in 10.0 mi SE 6.9 mph - N/A   Clear
3:55 PM 52.0 °F - 27.0 °F 38% 30.20 in 10.0 mi ESE 5.8 mph - N/A   Clear
4:15 PM 51.6 °F - 27.5 °F 39% 30.20 in 10.0 mi SE 5.8 mph - N/A   Clear
4:35 PM 50.5 °F - 28.4 °F 42% 30.20 in 10.0 mi SE 4.6 mph - N/A   Clear
4:55 PM 46.9 °F - 29.5 °F 51% 30.21 in 10.0 mi SSE 5.8 mph - N/A   Clear
5:15 PM 43.9 °F 40.5 °F 30.9 °F 60% 30.21 in 10.0 mi South 5.8 mph - N/A   Clear
5:35 PM 42.1 °F 38.4 °F 30.6 °F 64% 30.21 in 10.0 mi South 5.8 mph - N/A   Clear
5:55 PM 41.0 °F 36.4 °F 30.6 °F 66% 30.22 in 10.0 mi SSW 6.9 mph - N/A   Clear
6:15 PM 38.7 °F 33.6 °F 30.7 °F 73% 30.23 in 10.0 mi SW 6.9 mph - N/A   Clear
6:35 PM 37.9 °F 32.1 °F 30.7 °F 75% 30.24 in 10.0 mi WSW 8.1 mph - N/A   Clear
6:55 PM 40.8 °F 38.8 °F 30.2 °F 66% 30.24 in 10.0 mi SSE 3.5 mph - N/A   Clear
7:15 PM 39.7 °F 37.6 °F 30.0 °F 68% 30.25 in 10.0 mi South 3.5 mph - N/A   Clear
7:35 PM 39.4 °F 35.2 °F 29.7 °F 68% 30.26 in 10.0 mi SSE 5.8 mph - N/A   Clear
7:55 PM 38.1 °F 34.6 °F 30.0 °F 73% 30.26 in 10.0 mi South 4.6 mph - N/A   Clear
8:15 PM 37.8 °F 34.2 °F 29.8 °F 73% 30.26 in 10.0 mi South 4.6 mph - N/A   Clear
8:35 PM 37.6 °F 34.0 °F 30.0 °F 74% 30.26 in 10.0 mi South 4.6 mph - N/A   Clear
8:55 PM 38.5 °F 35.0 °F 29.7 °F 71% 30.27 in 10.0 mi South 4.6 mph - N/A   Clear
9:15 PM 36.9 °F 33.1 °F 29.5 °F 75% 30.27 in 10.0 mi South 4.6 mph - N/A   Clear
9:35 PM 34.7 °F - 29.7 °F 82% 30.28 in 10.0 mi Calm Calm - N/A   Clear
9:55 PM 34.3 °F - 29.5 °F 82% 30.28 in 10.0 mi Calm Calm - N/A   Clear
10:15 PM 33.1 °F 28.7 °F 29.8 °F 88% 30.28 in 10.0 mi SW 4.6 mph - N/A   Clear
10:35 PM 32.4 °F - 29.3 °F 88% 30.28 in 10.0 mi Calm Calm - N/A   Clear
10:55 PM 32.4 °F 29.1 °F 29.7 °F 90% 30.30 in 10.0 mi WNW 3.5 mph - N/A   Clear
11:15 PM 32.2 °F - 29.5 °F 90% 30.30 in 10.0 mi Calm Calm - N/A   Clear
11:35 PM 32.0 °F 28.7 °F 29.3 °F 90% 30.30 in 10.0 mi West 3.5 mph - N/A   Clear
11:55 PM 31.5 °F - 29.1 °F 91% 30.31 in 10.0 mi Calm Calm - N/A   Clear